Location: Newark
(7.0858°N, 171.3717°E)
Time: 06:47:32
(UTC+00:00)

Courier 1B - Pass Details

Date: 29 November 2020
Orbit: 962 x 1209 km, 28.3° (Epoch: 19 January)

Event Time Altitude Azimuth Distance (km) Brightness Sun altitude
Rises 06:05:32 0° 224° (SW) 3,653 12.0 1.4°
Reaches altitude 10° 06:08:22 10° 217° (SW) 2,692 10.9 0.8°
Maximum altitude 06:14:20 39° 149° (SSE) 1,399 8.3 -0.6°
Drops below altitude 10° 06:20:20 10° 82° (E) 2,707 9.2 -2.0°
Enters shadow 06:22:27 - 76° (ENE) 3,421 9.7 -2.5°
Sets 06:23:11 0° 75° (ENE) 3,676 - -2.7°
